Year,Month,Day,Hour,Minute,Value (Times are PST for temperature in C)
2015,05,01,00,00,11.40
2015,05,01,00,01,11.40
2015,05,01,00,02,11.40
2015,05,01,00,03,11.40
2015,05,01,00,04,11.40
2015,05,01,00,05,11.40
2015,05,01,00,06,11.40
2015,05,01,00,07,11.40
2015,05,01,00,08,11.40
2015,05,01,00,09,11.40
2015,05,01,00,10,11.30
2015,05,01,00,11,11.30
2015,05,01,00,12,11.30
2015,05,01,00,13,11.30
2015,05,01,00,14,11.30
2015,05,01,00,15,11.30
2015,05,01,00,16,11.30
2015,05,01,00,17,11.30
2015,05,01,00,18,11.30
2015,05,01,00,19,11.20
2015,05,01,00,20,11.20
2015,05,01,00,21,11.20
2015,05,01,00,22,11.20
2015,05,01,00,23,11.20
2015,05,01,00,24,11.20
2015,05,01,00,25,11.20
2015,05,01,00,26,11.20
2015,05,01,00,27,11.20
2015,05,01,00,28,11.20
2015,05,01,00,29,11.20
2015,05,01,00,30,11.20
2015,05,01,00,31,11.20
2015,05,01,00,32,11.20
2015,05,01,00,33,11.10
2015,05,01,00,34,11.10
2015,05,01,00,35,11.10
2015,05,01,00,36,11.10
2015,05,01,00,37,11.10
2015,05,01,00,38,11.10
2015,05,01,00,39,11.10
2015,05,01,00,40,11.10
2015,05,01,00,41,11.10
2015,05,01,00,42,11.10
2015,05,01,00,43,11.10
2015,05,01,00,44,11.10
2015,05,01,00,45,11.10
2015,05,01,00,46,11.10
2015,05,01,00,47,11.10
2015,05,01,00,48,11.10
2015,05,01,00,49,11.10
2015,05,01,00,50,11.10
2015,05,01,00,51,11.10
2015,05,01,00,52,11.10
2015,05,01,00,53,11.10
2015,05,01,00,54,11.10
2015,05,01,00,55,11.10
2015,05,01,00,56,11.10
2015,05,01,00,57,11.10
2015,05,01,00,58,11.10
2015,05,01,00,59,11.10
2015,05,01,01,00,11.10
2015,05,01,01,01,11.00
2015,05,01,01,02,10.90
2015,05,01,01,03,10.90
2015,05,01,01,04,10.90
2015,05,01,01,05,10.90
2015,05,01,01,06,10.90
2015,05,01,01,07,10.90
2015,05,01,01,08,10.90
2015,05,01,01,09,10.90
2015,05,01,01,10,10.90
2015,05,01,01,11,10.90
2015,05,01,01,12,10.90
2015,05,01,01,13,10.90
2015,05,01,01,14,10.90
2015,05,01,01,15,10.90
2015,05,01,01,16,10.90
2015,05,01,01,17,10.90
2015,05,01,01,18,10.90
2015,05,01,01,19,10.90
2015,05,01,01,20,10.90
2015,05,01,01,21,10.90
2015,05,01,01,22,10.90
2015,05,01,01,23,10.90
2015,05,01,01,24,10.90
2015,05,01,01,25,10.90
2015,05,01,01,26,10.90
2015,05,01,01,27,10.90
2015,05,01,01,28,10.90
2015,05,01,01,29,10.90
2015,05,01,01,30,10.90
2015,05,01,01,31,10.90
2015,05,01,01,32,10.90
2015,05,01,01,33,10.90
2015,05,01,01,34,10.90
2015,05,01,01,35,10.90
2015,05,01,01,36,10.90
2015,05,01,01,37,10.90
2015,05,01,01,38,10.90
2015,05,01,01,39,10.90
2015,05,01,01,40,10.90
2015,05,01,01,41,10.90
2015,05,01,01,42,10.90
2015,05,01,01,43,10.90
2015,05,01,01,44,10.90
2015,05,01,01,45,10.90
2015,05,01,01,46,10.90
2015,05,01,01,47,10.90
2015,05,01,01,48,10.90
2015,05,01,01,49,10.90
2015,05,01,01,50,10.90
2015,05,01,01,51,10.90
2015,05,01,01,52,10.90
2015,05,01,01,53,10.90
2015,05,01,01,54,10.90
2015,05,01,01,55,10.90
2015,05,01,01,56,10.90
2015,05,01,01,57,10.90
2015,05,01,01,58,10.90
2015,05,01,01,59,10.90
2015,05,01,02,00,10.90
2015,05,01,02,01,10.90
2015,05,01,02,02,10.90
2015,05,01,02,03,10.90
2015,05,01,02,04,10.90
2015,05,01,02,05,10.90
2015,05,01,02,06,10.90
2015,05,01,02,07,10.90
2015,05,01,02,08,10.90
2015,05,01,02,09,10.90
2015,05,01,02,10,10.90
2015,05,01,02,11,10.90
2015,05,01,02,12,10.90
2015,05,01,02,13,10.90
2015,05,01,02,14,10.90
2015,05,01,02,15,10.90
2015,05,01,02,16,10.90
2015,05,01,02,17,10.90
2015,05,01,02,18,10.90
2015,05,01,02,19,10.90
2015,05,01,02,20,10.90
2015,05,01,02,21,10.90
2015,05,01,02,22,10.90
2015,05,01,02,23,10.90
2015,05,01,02,24,10.90
2015,05,01,02,25,10.90
2015,05,01,02,26,10.90
2015,05,01,02,27,10.90
2015,05,01,02,28,10.90
2015,05,01,02,29,10.90
2015,05,01,02,30,10.90
2015,05,01,02,31,10.90
2015,05,01,02,32,10.90
2015,05,01,02,33,10.90
2015,05,01,02,34,10.90
2015,05,01,02,35,10.90
2015,05,01,02,36,10.90
2015,05,01,02,37,10.90
2015,05,01,02,38,10.90
2015,05,01,02,39,10.90
2015,05,01,02,40,10.90
2015,05,01,02,41,10.90
2015,05,01,02,42,10.90
2015,05,01,02,43,10.90
2015,05,01,02,44,10.90
2015,05,01,02,45,10.90
2015,05,01,02,46,10.90
2015,05,01,02,47,10.90
2015,05,01,02,48,10.90
2015,05,01,02,49,10.90
2015,05,01,02,50,10.90
2015,05,01,02,51,10.90
2015,05,01,02,52,10.90
2015,05,01,02,53,10.90
2015,05,01,02,54,10.90
2015,05,01,02,55,10.90
2015,05,01,02,56,10.90
2015,05,01,02,57,10.90
2015,05,01,02,58,10.90
2015,05,01,02,59,10.90
2015,05,01,03,00,10.90
2015,05,01,03,01,10.90
2015,05,01,03,02,10.90
2015,05,01,03,03,10.90
2015,05,01,03,04,10.90
2015,05,01,03,05,10.90
2015,05,01,03,06,10.90
2015,05,01,03,07,10.90
2015,05,01,03,08,10.90
2015,05,01,03,09,10.90
2015,05,01,03,10,10.90
2015,05,01,03,11,10.90
2015,05,01,03,12,10.90
2015,05,01,03,13,10.90
2015,05,01,03,14,10.90
2015,05,01,03,15,10.90
2015,05,01,03,16,10.90
2015,05,01,03,17,10.90
2015,05,01,03,18,10.90
2015,05,01,03,19,10.90
2015,05,01,03,20,10.90
2015,05,01,03,21,10.90
2015,05,01,03,22,10.90
2015,05,01,03,23,10.90
2015,05,01,03,24,10.90
2015,05,01,03,25,10.90
2015,05,01,03,26,10.90
2015,05,01,03,27,10.90
2015,05,01,03,28,10.90
2015,05,01,03,29,10.90
2015,05,01,03,30,10.90
2015,05,01,03,31,10.90
2015,05,01,03,32,10.80
2015,05,01,03,33,10.80
2015,05,01,03,34,10.80
2015,05,01,03,35,10.80
2015,05,01,03,36,10.80
2015,05,01,03,37,10.80
2015,05,01,03,38,10.80
2015,05,01,03,39,10.80
2015,05,01,03,40,10.80
2015,05,01,03,41,10.80
2015,05,01,03,42,10.80
2015,05,01,03,43,10.80
2015,05,01,03,44,10.80
2015,05,01,03,45,10.80
2015,05,01,03,46,10.80
2015,05,01,03,47,10.80
2015,05,01,03,48,10.80
2015,05,01,03,49,10.80
2015,05,01,03,50,10.80
2015,05,01,03,51,10.80
2015,05,01,03,52,10.80
2015,05,01,03,53,10.80
2015,05,01,03,54,10.80
2015,05,01,03,55,10.80
2015,05,01,03,56,10.80
2015,05,01,03,57,10.80
2015,05,01,03,58,10.70
2015,05,01,03,59,10.70
2015,05,01,04,00,10.70
2015,05,01,04,01,10.70
2015,05,01,04,02,10.70
2015,05,01,04,03,10.70
2015,05,01,04,04,10.70
2015,05,01,04,05,10.70
2015,05,01,04,06,10.70
2015,05,01,04,07,10.70
2015,05,01,04,08,10.70
2015,05,01,04,09,10.70
2015,05,01,04,10,10.70
2015,05,01,04,11,10.70
2015,05,01,04,12,10.70
2015,05,01,04,13,10.70
2015,05,01,04,14,10.70
2015,05,01,04,15,10.70
2015,05,01,04,16,10.70
2015,05,01,04,17,10.70
2015,05,01,04,18,10.70
2015,05,01,04,19,10.70
2015,05,01,04,20,10.70
2015,05,01,04,21,10.70
2015,05,01,04,22,10.70
2015,05,01,04,23,10.70
2015,05,01,04,24,10.60
2015,05,01,04,25,10.60
2015,05,01,04,26,10.60
2015,05,01,04,27,10.60
2015,05,01,04,28,10.60
2015,05,01,04,29,10.60
2015,05,01,04,30,10.60
2015,05,01,04,31,10.60
2015,05,01,04,32,10.60
2015,05,01,04,33,10.60
2015,05,01,04,34,10.60
2015,05,01,04,35,10.60
2015,05,01,04,36,10.60
2015,05,01,04,37,10.60
2015,05,01,04,38,10.60
2015,05,01,04,39,10.60
2015,05,01,04,40,10.60
2015,05,01,04,41,10.60
2015,05,01,04,42,10.60
2015,05,01,04,43,10.60
2015,05,01,04,44,10.60
2015,05,01,04,45,10.60
2015,05,01,04,46,10.60
2015,05,01,04,47,10.60
2015,05,01,04,48,10.60
2015,05,01,04,49,10.60
2015,05,01,04,50,10.60
2015,05,01,04,51,10.60
2015,05,01,04,52,10.60
2015,05,01,04,53,10.60
2015,05,01,04,54,10.60
2015,05,01,04,55,10.60
2015,05,01,04,56,10.50
2015,05,01,04,57,10.40
2015,05,01,04,58,10.40
2015,05,01,04,59,10.40
2015,05,01,05,00,10.40
2015,05,01,05,01,10.40
2015,05,01,05,02,10.40
2015,05,01,05,03,10.40
2015,05,01,05,04,10.40
2015,05,01,05,05,10.40
2015,05,01,05,06,10.40
2015,05,01,05,07,10.40
2015,05,01,05,08,10.30
2015,05,01,05,09,10.30
2015,05,01,05,10,10.30
2015,05,01,05,11,10.30
2015,05,01,05,12,10.30
2015,05,01,05,13,10.20
2015,05,01,05,14,10.20
2015,05,01,05,15,10.20
2015,05,01,05,16,10.20
2015,05,01,05,17,10.20
2015,05,01,05,18,10.10
2015,05,01,05,19,10.10
2015,05,01,05,20,10.10
2015,05,01,05,21,10.10
2015,05,01,05,22,10.10
2015,05,01,05,23,10.20
2015,05,01,05,24,10.20
2015,05,01,05,25,10.20
2015,05,01,05,26,10.20
2015,05,01,05,27,10.10
2015,05,01,05,28,10.10
2015,05,01,05,29,10.10
2015,05,01,05,30,10.10
2015,05,01,05,31,10.10
2015,05,01,05,32,10.10
2015,05,01,05,33,10.10
2015,05,01,05,34,10.10
2015,05,01,05,35,10.10
2015,05,01,05,36,10.10
2015,05,01,05,37,10.10
2015,05,01,05,38,10.10
2015,05,01,05,39,10.10
2015,05,01,05,40,10.00
2015,05,01,05,41,9.90
2015,05,01,05,42,9.90
2015,05,01,05,43,9.90
2015,05,01,05,44,9.90
2015,05,01,05,45,9.90
2015,05,01,05,46,9.90
2015,05,01,05,47,9.90
2015,05,01,05,48,9.90
2015,05,01,05,49,9.90
2015,05,01,05,50,9.90
2015,05,01,05,51,9.90
2015,05,01,05,52,9.90
2015,05,01,05,53,9.90
2015,05,01,05,54,9.90
2015,05,01,05,55,9.90
2015,05,01,05,56,9.90
2015,05,01,05,57,9.90
2015,05,01,05,58,9.90
2015,05,01,05,59,9.90
2015,05,01,06,00,9.90
2015,05,01,06,01,9.90
2015,05,01,06,02,9.90
2015,05,01,06,03,9.90
2015,05,01,06,04,9.90
2015,05,01,06,05,9.90
2015,05,01,06,06,9.90
2015,05,01,06,07,9.90
2015,05,01,06,08,9.90
2015,05,01,06,09,9.90
2015,05,01,06,10,9.90
2015,05,01,06,11,9.90
2015,05,01,06,12,9.90
2015,05,01,06,13,9.90
2015,05,01,06,14,9.90
2015,05,01,06,15,9.90
2015,05,01,06,16,9.90
2015,05,01,06,17,9.80
2015,05,01,06,18,9.80
2015,05,01,06,19,9.80
2015,05,01,06,20,9.80
2015,05,01,06,21,9.80
2015,05,01,06,22,9.80
2015,05,01,06,23,9.80
2015,05,01,06,24,9.80
2015,05,01,06,25,9.70
2015,05,01,06,26,9.70
2015,05,01,06,27,9.70
2015,05,01,06,28,9.70
2015,05,01,06,29,9.70
2015,05,01,06,30,9.70
2015,05,01,06,31,9.70
2015,05,01,06,32,9.70
2015,05,01,06,33,9.70
2015,05,01,06,34,9.70
2015,05,01,06,35,9.70
2015,05,01,06,36,9.70
2015,05,01,06,37,9.70
2015,05,01,06,38,9.70
2015,05,01,06,39,9.70
2015,05,01,06,40,9.70
2015,05,01,06,41,9.70
2015,05,01,06,42,9.70
2015,05,01,06,43,9.70
2015,05,01,06,44,9.70
2015,05,01,06,45,9.70
2015,05,01,06,46,9.70
2015,05,01,06,47,9.70
2015,05,01,06,48,9.70
2015,05,01,06,49,9.70
2015,05,01,06,50,9.70
2015,05,01,06,51,9.70
2015,05,01,06,52,9.70
2015,05,01,06,53,9.70
2015,05,01,06,54,9.70
2015,05,01,06,55,9.70
2015,05,01,06,56,9.70
2015,05,01,06,57,9.70
2015,05,01,06,58,9.70
2015,05,01,06,59,9.70
2015,05,01,07,00,9.70
2015,05,01,07,01,9.70
2015,05,01,07,02,9.70
2015,05,01,07,03,9.80
2015,05,01,07,04,9.80
2015,05,01,07,05,9.80
2015,05,01,07,06,9.80
2015,05,01,07,07,9.80
2015,05,01,07,08,9.90
2015,05,01,07,09,9.90
2015,05,01,07,10,9.90
2015,05,01,07,11,9.90
2015,05,01,07,12,9.90
2015,05,01,07,13,9.90
2015,05,01,07,14,9.90
2015,05,01,07,15,9.90
2015,05,01,07,16,9.90
2015,05,01,07,17,9.90
2015,05,01,07,18,9.90
2015,05,01,07,19,9.90
2015,05,01,07,20,9.90
2015,05,01,07,21,9.90
2015,05,01,07,22,10.00
2015,05,01,07,23,10.10
2015,05,01,07,24,10.10
2015,05,01,07,25,10.10
2015,05,01,07,26,10.10
2015,05,01,07,27,10.10
2015,05,01,07,28,10.10
2015,05,01,07,29,10.10
2015,05,01,07,30,10.10
2015,05,01,07,31,10.10
2015,05,01,07,32,10.10
2015,05,01,07,33,10.10
2015,05,01,07,34,10.10
2015,05,01,07,35,10.10
2015,05,01,07,36,10.20
2015,05,01,07,37,10.20
2015,05,01,07,38,10.20
2015,05,01,07,39,10.20
2015,05,01,07,40,10.20
2015,05,01,07,41,10.20
2015,05,01,07,42,10.20
2015,05,01,07,43,10.30
2015,05,01,07,44,10.30
2015,05,01,07,45,10.40
2015,05,01,07,46,10.40
2015,05,01,07,47,10.40
2015,05,01,07,48,10.40
2015,05,01,07,49,10.40
2015,05,01,07,50,10.40
2015,05,01,07,51,10.40
2015,05,01,07,52,10.40
2015,05,01,07,53,10.40
2015,05,01,07,54,10.40
2015,05,01,07,55,10.40
2015,05,01,07,56,10.40
2015,05,01,07,57,10.40
2015,05,01,07,58,10.40
2015,05,01,07,59,10.40
2015,05,01,08,00,10.40
2015,05,01,08,01,10.40
2015,05,01,08,02,10.40
2015,05,01,08,03,10.40
2015,05,01,08,04,10.50
2015,05,01,08,05,10.60
2015,05,01,08,06,10.60
2015,05,01,08,07,10.60
2015,05,01,08,08,10.70
2015,05,01,08,09,10.70
2015,05,01,08,10,10.70
2015,05,01,08,11,10.80
2015,05,01,08,12,10.90
2015,05,01,08,13,10.90
2015,05,01,08,14,10.90
2015,05,01,08,15,11.00
2015,05,01,08,16,11.10
2015,05,01,08,17,11.10
2015,05,01,08,18,11.20
2015,05,01,08,19,11.20
2015,05,01,08,20,11.20
2015,05,01,08,21,11.30
2015,05,01,08,22,11.40
2015,05,01,08,23,11.40
2015,05,01,08,24,11.40
2015,05,01,08,25,11.40
2015,05,01,08,26,11.40
2015,05,01,08,27,11.40
2015,05,01,08,28,11.40
2015,05,01,08,29,11.40
2015,05,01,08,30,11.50
2015,05,01,08,31,11.60
2015,05,01,08,32,11.60
2015,05,01,08,33,11.60
2015,05,01,08,34,11.60
2015,05,01,08,35,11.60
2015,05,01,08,36,11.60
2015,05,01,08,37,11.60
2015,05,01,08,38,11.60
2015,05,01,08,39,11.60
2015,05,01,08,40,11.60
2015,05,01,08,41,11.40
2015,05,01,08,42,11.40
2015,05,01,08,43,11.50
2015,05,01,08,44,11.60
2015,05,01,08,45,11.60
2015,05,01,08,46,11.70
2015,05,01,08,47,11.80
2015,05,01,08,48,11.80
2015,05,01,08,49,11.80
2015,05,01,08,50,11.80
2015,05,01,08,51,11.80
2015,05,01,08,52,11.80
2015,05,01,08,53,11.80
2015,05,01,08,54,11.90
2015,05,01,08,55,11.90
2015,05,01,08,56,12.00
2015,05,01,08,57,12.10
2015,05,01,08,58,12.10
2015,05,01,08,59,12.20
2015,05,01,09,00,12.30
2015,05,01,09,01,12.30
2015,05,01,09,02,12.30
2015,05,01,09,03,12.30
2015,05,01,09,04,12.30
2015,05,01,09,05,12.40
2015,05,01,09,06,12.40
2015,05,01,09,07,12.50
2015,05,01,09,08,12.50
2015,05,01,09,09,12.60
2015,05,01,09,10,12.70
2015,05,01,09,11,12.80
2015,05,01,09,12,12.80
2015,05,01,09,13,12.80
2015,05,01,09,14,12.80
2015,05,01,09,15,12.80
2015,05,01,09,16,12.80
2015,05,01,09,17,12.80
2015,05,01,09,18,12.80
2015,05,01,09,19,12.80
2015,05,01,09,20,12.90
2015,05,01,09,21,13.00
2015,05,01,09,22,13.00
2015,05,01,09,23,13.10
2015,05,01,09,24,13.10
2015,05,01,09,25,13.00
2015,05,01,09,26,13.10
2015,05,01,09,27,13.10
2015,05,01,09,28,13.20
2015,05,01,09,29,13.30
2015,05,01,09,30,13.30
2015,05,01,09,31,13.30
2015,05,01,09,32,13.50
2015,05,01,09,33,13.60
2015,05,01,09,34,13.60
2015,05,01,09,35,13.70
2015,05,01,09,36,13.70
2015,05,01,09,37,13.70
2015,05,01,09,38,13.70
2015,05,01,09,39,13.70
2015,05,01,09,40,13.70
2015,05,01,09,41,13.80
2015,05,01,09,42,13.80
2015,05,01,09,43,13.90
2015,05,01,09,44,13.90
2015,05,01,09,45,14.00
2015,05,01,09,46,14.00
2015,05,01,09,47,14.10
2015,05,01,09,48,14.10
2015,05,01,09,49,14.10
2015,05,01,09,50,14.10
2015,05,01,09,51,14.20
2015,05,01,09,52,14.20
2015,05,01,09,53,14.20
2015,05,01,09,54,14.20
2015,05,01,09,55,14.20
2015,05,01,09,56,14.20
2015,05,01,09,57,14.10
2015,05,01,09,58,14.00
2015,05,01,09,59,14.00
2015,05,01,10,00,14.10
2015,05,01,10,01,14.10
2015,05,01,10,02,14.10
2015,05,01,10,03,14.00
2015,05,01,10,04,14.00
2015,05,01,10,05,14.00
2015,05,01,10,06,14.00
2015,05,01,10,07,13.90
2015,05,01,10,08,14.00
2015,05,01,10,09,14.00
2015,05,01,10,10,14.00
2015,05,01,10,11,14.00
2015,05,01,10,12,14.10
2015,05,01,10,13,14.10
2015,05,01,10,14,14.20
2015,05,01,10,15,14.20
2015,05,01,10,16,14.20
2015,05,01,10,17,14.20
2015,05,01,10,18,14.30
2015,05,01,10,19,14.30
2015,05,01,10,20,14.30
2015,05,01,10,21,14.20
2015,05,01,10,22,14.20
2015,05,01,10,23,14.20
2015,05,01,10,24,14.20
2015,05,01,10,25,14.20
2015,05,01,10,26,14.30
2015,05,01,10,27,14.40
2015,05,01,10,28,14.40
2015,05,01,10,29,14.30
2015,05,01,10,30,14.30
2015,05,01,10,31,14.40
2015,05,01,10,32,14.30
2015,05,01,10,33,14.20
2015,05,01,10,34,14.20
2015,05,01,10,35,14.30
2015,05,01,10,36,14.40
2015,05,01,10,37,14.40
2015,05,01,10,38,14.50
2015,05,01,10,39,14.50
2015,05,01,10,40,14.50
2015,05,01,10,41,14.40
2015,05,01,10,42,14.40
2015,05,01,10,43,14.50
2015,05,01,10,44,14.60
2015,05,01,10,45,14.60
2015,05,01,10,46,14.60
2015,05,01,10,47,14.60
2015,05,01,10,48,14.50
2015,05,01,10,49,14.40
2015,05,01,10,50,14.50
2015,05,01,10,51,14.50
2015,05,01,10,52,14.60
2015,05,01,10,53,14.60
2015,05,01,10,54,14.50
2015,05,01,10,55,14.60
2015,05,01,10,56,14.70
2015,05,01,10,57,14.80
2015,05,01,10,58,14.80
2015,05,01,10,59,14.80
2015,05,01,11,00,14.90
2015,05,01,11,01,14.90
2015,05,01,11,02,14.90
2015,05,01,11,03,14.90
2015,05,01,11,04,14.80
2015,05,01,11,05,14.80
2015,05,01,11,06,14.80
2015,05,01,11,07,14.80
2015,05,01,11,08,14.80
2015,05,01,11,09,14.90
2015,05,01,11,10,15.00
2015,05,01,11,11,14.90
2015,05,01,11,12,14.90
2015,05,01,11,13,14.90
2015,05,01,11,14,14.90
2015,05,01,11,15,14.90
2015,05,01,11,16,15.00
2015,05,01,11,17,15.00
2015,05,01,11,18,15.00
2015,05,01,11,19,14.90
2015,05,01,11,20,14.90
2015,05,01,11,21,14.80
2015,05,01,11,22,14.80
2015,05,01,11,23,14.80
2015,05,01,11,24,14.80
2015,05,01,11,25,14.80
2015,05,01,11,26,14.80
2015,05,01,11,27,14.80
2015,05,01,11,28,14.80
2015,05,01,11,29,14.90
2015,05,01,11,30,15.10
2015,05,01,11,31,15.20
2015,05,01,11,32,15.20
2015,05,01,11,33,15.30
2015,05,01,11,34,15.30
2015,05,01,11,35,15.30
2015,05,01,11,36,15.30
2015,05,01,11,37,15.30
2015,05,01,11,38,15.30
2015,05,01,11,39,15.20
2015,05,01,11,40,15.20
2015,05,01,11,41,15.20
2015,05,01,11,42,15.20
2015,05,01,11,43,15.20
2015,05,01,11,44,15.20
2015,05,01,11,45,15.20
2015,05,01,11,46,15.30
2015,05,01,11,47,15.40
2015,05,01,11,48,15.40
2015,05,01,11,49,15.40
2015,05,01,11,50,15.50
2015,05,01,11,51,15.50
2015,05,01,11,52,15.50
2015,05,01,11,53,15.50
2015,05,01,11,54,15.50
2015,05,01,11,55,15.50
2015,05,01,11,56,15.40
2015,05,01,11,57,15.40
2015,05,01,11,58,15.30
2015,05,01,11,59,15.30
2015,05,01,12,00,15.20
2015,05,01,12,01,15.30
2015,05,01,12,02,15.30
2015,05,01,12,03,15.20
2015,05,01,12,04,15.10
2015,05,01,12,05,15.10
2015,05,01,12,06,15.10
2015,05,01,12,07,15.20
2015,05,01,12,08,15.30
2015,05,01,12,09,15.40
2015,05,01,12,10,15.40
2015,05,01,12,11,15.40
2015,05,01,12,12,15.30
2015,05,01,12,13,15.30
2015,05,01,12,14,15.40
2015,05,01,12,15,15.50
2015,05,01,12,16,15.50
2015,05,01,12,17,15.60
2015,05,01,12,18,15.70
2015,05,01,12,19,15.70
2015,05,01,12,20,15.80
2015,05,01,12,21,15.90
2015,05,01,12,22,15.90
2015,05,01,12,23,16.10
2015,05,01,12,24,16.20
2015,05,01,12,25,16.30
2015,05,01,12,26,16.40
2015,05,01,12,27,16.50
2015,05,01,12,28,16.60
2015,05,01,12,29,16.60
2015,05,01,12,30,16.60
2015,05,01,12,31,16.60
2015,05,01,12,32,16.70
2015,05,01,12,33,16.60
2015,05,01,12,34,16.50
2015,05,01,12,35,16.40
2015,05,01,12,36,16.40
2015,05,01,12,37,16.40
2015,05,01,12,38,16.30
2015,05,01,12,39,16.30
2015,05,01,12,40,16.40
2015,05,01,12,41,16.40
2015,05,01,12,42,16.40
2015,05,01,12,43,16.40
2015,05,01,12,44,16.40
2015,05,01,12,45,16.40
2015,05,01,12,46,16.50
2015,05,01,12,47,16.60
2015,05,01,12,48,16.60
2015,05,01,12,49,16.50
2015,05,01,12,50,16.50
2015,05,01,12,51,16.40
2015,05,01,12,52,16.40
2015,05,01,12,53,16.40
2015,05,01,12,54,16.50
2015,05,01,12,55,16.50
2015,05,01,12,56,16.40
2015,05,01,12,57,16.40
2015,05,01,12,58,16.40
2015,05,01,12,59,16.30
2015,05,01,13,00,16.40
2015,05,01,13,01,16.40
2015,05,01,13,02,16.50
2015,05,01,13,03,16.60
2015,05,01,13,04,16.70
2015,05,01,13,05,16.70
2015,05,01,13,06,16.60
2015,05,01,13,07,16.50
2015,05,01,13,08,16.40
2015,05,01,13,09,16.60
2015,05,01,13,10,16.70
2015,05,01,13,11,16.70
2015,05,01,13,12,16.70
2015,05,01,13,13,16.70
2015,05,01,13,14,16.60
2015,05,01,13,15,16.50
2015,05,01,13,16,16.30
2015,05,01,13,17,16.20
2015,05,01,13,18,16.10
2015,05,01,13,19,16.10
2015,05,01,13,20,16.10
2015,05,01,13,21,16.10
2015,05,01,13,22,16.10
2015,05,01,13,23,16.00
2015,05,01,13,24,15.90
2015,05,01,13,25,16.10
2015,05,01,13,26,16.10
2015,05,01,13,27,16.00
2015,05,01,13,28,15.90
2015,05,01,13,29,15.90
2015,05,01,13,30,15.90
2015,05,01,13,31,15.90
2015,05,01,13,32,15.90
2015,05,01,13,33,16.00
2015,05,01,13,34,16.10
2015,05,01,13,35,16.00
2015,05,01,13,36,15.90
2015,05,01,13,37,15.90
2015,05,01,13,38,15.80
2015,05,01,13,39,15.80
2015,05,01,13,40,15.90
2015,05,01,13,41,16.10
2015,05,01,13,42,16.10
2015,05,01,13,43,16.20
2015,05,01,13,44,16.20
2015,05,01,13,45,16.40
2015,05,01,13,46,16.50
2015,05,01,13,47,16.60
2015,05,01,13,48,16.70
2015,05,01,13,49,16.70
2015,05,01,13,50,16.80
2015,05,01,13,51,16.80
2015,05,01,13,52,16.70
2015,05,01,13,53,16.70
2015,05,01,13,54,16.60
2015,05,01,13,55,16.40
2015,05,01,13,56,16.30
2015,05,01,13,57,16.30
2015,05,01,13,58,16.30
2015,05,01,13,59,16.10
2015,05,01,14,00,16.10
2015,05,01,14,01,16.10
2015,05,01,14,02,16.30
2015,05,01,14,03,16.30
2015,05,01,14,04,16.20
2015,05,01,14,05,16.10
2015,05,01,14,06,16.10
2015,05,01,14,07,16.10
2015,05,01,14,08,16.20
2015,05,01,14,09,16.30
2015,05,01,14,10,16.40
2015,05,01,14,11,16.20
2015,05,01,14,12,16.30
2015,05,01,14,13,16.40
2015,05,01,14,14,16.50
2015,05,01,14,15,16.50
2015,05,01,14,16,16.60
2015,05,01,14,17,16.70
2015,05,01,14,18,16.50
2015,05,01,14,19,16.50
2015,05,01,14,20,16.70
2015,05,01,14,21,16.70
2015,05,01,14,22,16.80
2015,05,01,14,23,16.90
2015,05,01,14,24,17.00
2015,05,01,14,25,17.10
2015,05,01,14,26,17.30
2015,05,01,14,27,17.30
2015,05,01,14,28,17.20
2015,05,01,14,29,17.20
2015,05,01,14,30,17.20
2015,05,01,14,31,17.10
2015,05,01,14,32,17.00
2015,05,01,14,33,17.00
2015,05,01,14,34,17.00
2015,05,01,14,35,17.10
2015,05,01,14,36,17.10
2015,05,01,14,37,17.10
2015,05,01,14,38,17.00
2015,05,01,14,39,16.90
2015,05,01,14,40,16.80
2015,05,01,14,41,16.70
2015,05,01,14,42,16.70
2015,05,01,14,43,16.60
2015,05,01,14,44,16.60
2015,05,01,14,45,16.60
2015,05,01,14,46,16.60
2015,05,01,14,47,16.70
2015,05,01,14,48,16.70
2015,05,01,14,49,16.70
2015,05,01,14,50,16.70
2015,05,01,14,51,16.70
2015,05,01,14,52,16.70
2015,05,01,14,53,16.80
2015,05,01,14,54,16.80
2015,05,01,14,55,16.90
2015,05,01,14,56,16.80
2015,05,01,14,57,16.80
2015,05,01,14,58,16.90
2015,05,01,14,59,17.10
2015,05,01,15,00,17.30
2015,05,01,15,01,17.40
2015,05,01,15,02,17.30
2015,05,01,15,03,17.30
2015,05,01,15,04,17.20
2015,05,01,15,05,17.00
2015,05,01,15,06,16.90
2015,05,01,15,07,16.80
2015,05,01,15,08,16.80
2015,05,01,15,09,16.70
2015,05,01,15,10,16.50
2015,05,01,15,11,16.40
2015,05,01,15,12,16.50
2015,05,01,15,13,16.60
2015,05,01,15,14,16.50
2015,05,01,15,15,16.40
2015,05,01,15,16,16.40
2015,05,01,15,17,16.40
2015,05,01,15,18,16.40
2015,05,01,15,19,16.50
2015,05,01,15,20,16.60
2015,05,01,15,21,16.60
2015,05,01,15,22,16.60
2015,05,01,15,23,16.60
2015,05,01,15,24,16.70
2015,05,01,15,25,16.60
2015,05,01,15,26,16.50
2015,05,01,15,27,16.40
2015,05,01,15,28,16.40
2015,05,01,15,29,16.50
2015,05,01,15,30,16.60
2015,05,01,15,31,16.70
2015,05,01,15,32,16.80
2015,05,01,15,33,16.70
2015,05,01,15,34,16.70
2015,05,01,15,35,16.70
2015,05,01,15,36,16.60
2015,05,01,15,37,16.50
2015,05,01,15,38,16.50
2015,05,01,15,39,16.60
2015,05,01,15,40,16.40
2015,05,01,15,41,16.40
2015,05,01,15,42,16.40
2015,05,01,15,43,16.40
2015,05,01,15,44,16.40
2015,05,01,15,45,16.30
2015,05,01,15,46,16.30
2015,05,01,15,47,16.40
2015,05,01,15,48,16.40
2015,05,01,15,49,16.40
2015,05,01,15,50,16.40
2015,05,01,15,51,16.40
2015,05,01,15,52,16.30
2015,05,01,15,53,16.30
2015,05,01,15,54,16.20
2015,05,01,15,55,16.10
2015,05,01,15,56,16.00
2015,05,01,15,57,15.90
2015,05,01,15,58,15.90
2015,05,01,15,59,15.80
2015,05,01,16,00,15.80
2015,05,01,16,01,15.80
2015,05,01,16,02,15.80
2015,05,01,16,03,15.80
2015,05,01,16,04,15.70
2015,05,01,16,05,15.70
2015,05,01,16,06,15.60
2015,05,01,16,07,15.60
2015,05,01,16,08,15.60
2015,05,01,16,09,15.50
2015,05,01,16,10,15.50
2015,05,01,16,11,15.50
2015,05,01,16,12,15.50
2015,05,01,16,13,15.50
2015,05,01,16,14,15.40
2015,05,01,16,15,15.40
2015,05,01,16,16,15.40
2015,05,01,16,17,15.40
2015,05,01,16,18,15.30
2015,05,01,16,19,15.30
2015,05,01,16,20,15.30
2015,05,01,16,21,15.30
2015,05,01,16,22,15.30
2015,05,01,16,23,15.40
2015,05,01,16,24,15.40
2015,05,01,16,25,15.40
2015,05,01,16,26,15.40
2015,05,01,16,27,15.30
2015,05,01,16,28,15.40
2015,05,01,16,29,15.30
2015,05,01,16,30,15.30
2015,05,01,16,31,15.40
2015,05,01,16,32,15.40
2015,05,01,16,33,15.40
2015,05,01,16,34,15.30
2015,05,01,16,35,15.30
2015,05,01,16,36,15.40
2015,05,01,16,37,15.40
2015,05,01,16,38,15.50
2015,05,01,16,39,15.60
2015,05,01,16,40,15.60
2015,05,01,16,41,15.60
2015,05,01,16,42,15.70
2015,05,01,16,43,15.70
2015,05,01,16,44,15.80
2015,05,01,16,45,15.80
2015,05,01,16,46,15.80
2015,05,01,16,47,15.80
2015,05,01,16,48,15.80
2015,05,01,16,49,15.80
2015,05,01,16,50,15.90
2015,05,01,16,51,15.90
2015,05,01,16,52,15.90
2015,05,01,16,53,15.80
2015,05,01,16,54,15.80
2015,05,01,16,55,15.80
2015,05,01,16,56,15.80
2015,05,01,16,57,15.80
2015,05,01,16,58,15.80
2015,05,01,16,59,15.80
2015,05,01,17,00,15.70
2015,05,01,17,01,15.70
2015,05,01,17,02,15.80
2015,05,01,17,03,15.80
2015,05,01,17,04,15.70
2015,05,01,17,05,15.60
2015,05,01,17,06,15.60
2015,05,01,17,07,15.60
2015,05,01,17,08,15.70
2015,05,01,17,09,15.60
2015,05,01,17,10,15.60
2015,05,01,17,11,15.60
2015,05,01,17,12,15.70
2015,05,01,17,13,15.80
2015,05,01,17,14,15.80
2015,05,01,17,15,15.80
2015,05,01,17,16,15.80
2015,05,01,17,17,15.60
2015,05,01,17,18,15.50
2015,05,01,17,19,15.50
2015,05,01,17,20,15.60
2015,05,01,17,21,15.60
2015,05,01,17,22,15.70
2015,05,01,17,23,15.80